Location: Chalifert
(48.8899°N, 2.7734°E)
Time: 20:28:04
(UTC+00:00)

Daily predictions for brighter satellites

Satellite Brightness Start Highest point End
(mag) Time Altitude Azimuth Time Altitude Azimuth Time Altitude Azimuth
Cosmos 2016 Rocket 3.9 18:37:49 10° S 18:43:52 72° E 18:49:57 10° NNE
Resurs 1-3 3.6 18:41:01 10° SSE 18:45:20 75° ENE 18:49:41 10° N
CARTOSAT-1 4.3 18:43:20 10° SE 18:47:08 33° ENE 18:50:58 10° N
DMSP B5D1-3 4.5 18:43:18 10° NNE 18:48:23 71° ESE 18:53:26 10° S
SPOT 1/Viking Rocket 3.6 18:43:45 10° SSE 18:48:55 74° ENE 18:54:06 10° N
ATLAS 2AS CENTAUR R/B 3.6 18:45:06 10° WSW 18:52:14 55° NW 18:59:08 10° NE
ATLAS CENTAUR R/B 3.3 18:50:29 10° WNW 18:55:09 57° SW 19:02:27 10° SE
Cosmos 1898 Rocket 3.8 18:50:12 10° NNW 18:55:31 73° WSW 19:00:46 10° SSE
Cosmos 1151 Rocket 2.9 18:52:54 10° N 18:57:12 79° E 19:01:27 10° SSE
ARGOS Delta rocket 4.1 18:52:26 10° SSE 18:57:31 59° ENE 19:02:21 10° N
Cosmos 2360 Rocket 2.3 18:51:59 10° SSW 18:57:38 86° WNW 19:03:20 10° NNE
Okean O Rocket 2.7 18:55:07 10° ESE 18:58:50 27° ENE 19:02:36 10° N
Cosmos 1340 2.5 18:57:06 10° S 19:00:14 47° E 19:03:24 10° NNE
USA 186 2.2 18:59:15 10° SE 19:02:16 41° ENE 19:05:21 10° N
Meteor PRIRODA 3.4 18:59:17 10° SSE 19:02:36 83° W 19:05:56 10° NNW
Resurs 01 Rocket 1.9 18:59:00 10° SE 19:03:16 48° ENE 19:07:32 10° N
Cosmos 2322 Rocket 2.8 19:00:56 10° SW 19:06:35 62° WNW 19:12:16 10° NNE
Cosmos 2237 Rocket 3.8 19:04:46 10° ESE 19:06:54 12° E 19:09:09 10° ENE
Helios 1A 2.8 19:05:13 10° NNE 19:09:18 73° ESE 19:13:21 10° S
ACS3 Solar Sail 2.4 19:05:57 10° SE 19:11:48 40° ENE 19:17:41 10° N
BlueWalker 3 2.2 19:08:45 10° WNW 19:12:28 59° NNE 19:15:32 14° E
NOSS 2-1 (E) 4.0 19:09:23 10° NNW 19:12:51 41° NE 19:16:32 14° ESE
Cosmos 44 Rocket 3.2 19:08:22 10° NW 19:13:11 78° NE 19:17:37 11° SE
Cosmos 2333 Rocket 2.6 19:08:49 10° SW 19:14:34 71° WNW 19:20:21 10° NNE
Okean-O 3.9 19:12:12 13° ESE 19:15:03 24° ENE 19:18:35 10° N
SL-08 R/B 3.6 19:11:47 10° NNE 19:16:43 79° WNW 19:21:38 10° SSW
Feng Yun 1-1 Rocket 4.4 19:11:17 10° SSE 19:16:55 63° ENE 19:22:44 10° N
ATLAS 3B R/B 4.0 19:10:20 10° NW 19:17:45 47° WSW 19:24:59 10° S
Cosmos 2219 Rocket 2.2 19:12:51 10° SSW 19:18:32 77° ESE 19:24:13 10° NNE
Cosmos 1626 3.7 19:19:06 10° NNW 19:21:46 29° W 19:24:25 10° SSW
Meteor 1-5 Rocket 4.4 19:16:16 10° SSW 19:21:53 81° WNW 19:27:44 10° N
NOSS 2-1 (D) 3.7 19:19:21 10° NNW 19:22:54 50° NE 19:26:15 17° ESE
CSL-04 Rocket 3.7 19:18:10 10° SSE 19:23:30 66° ENE 19:28:47 10° N
BREEZE-M DEB (TANK) 1.8 19:21:47 10° WSW 19:23:49 50° SSE 19:25:17 20° E
Cosmos 1842 3.5 19:22:04 10° N 19:25:30 39° ENE 19:27:54 17° SE
SL-16 R/B 4.1 19:21:53 10° WSW 19:26:57 33° NW 19:32:03 10° NNE
USA 229 DEB 4.3 19:19:53 10° NW 19:27:17 70° SW 19:35:19 10° SSE
USA 229 4.3 19:20:03 10° NW 19:27:27 70° SW 19:35:27 10° SSE
CZ-4B R/B 4.5 19:25:04 10° S 19:29:34 44° W 19:34:10 10° NNW
SJ-6B 4.0 19:26:22 10° S 19:29:49 39° W 19:33:15 10° NNW
Cosmos 1766 Rocket 3.6 19:27:52 10° S 19:32:07 58° E 19:36:25 10° NNE
USA 267 3.9 19:29:00 11° E 19:35:05 49° NNE 19:41:20 10° WNW
Cosmos 2369 Rocket 4.4 19:33:22 10° N 19:35:56 13° NNE 19:38:29 10° NE
BREEZE-M R/B 3.8 19:32:40 10° W 19:36:52 90° SSE 19:49:01 14° E
Meteor 2-17 Rocket 4.4 19:32:43 10° N 19:38:45 63° ENE 19:44:32 11° SSE
Cosmos 2322 3.6 19:33:47 10° SSW 19:39:20 64° ESE 19:44:57 10° NNE
USA 276 1.9 19:37:37 10° W 19:40:27 65° N 19:41:31 31° ENE
Cosmos 1066 Rocket 4.4 19:35:26 10° NNW 19:41:19 80° W 19:47:09 10° S
Cosmos 1400 Rocket 2.9 19:38:38 10° NNW 19:42:30 73° W 19:46:17 10° S
PSLV R/B 3.8 19:44:58 28° SE 19:46:34 50° ENE 19:50:02 10° N
Cosmos 1707 2.5 19:43:34 10° N 19:47:06 58° ENE 19:48:44 28° SSE
Cosmos 1315 Rocket 3.9 19:44:14 10° N 19:47:35 26° ENE 19:48:17 24° E
CZ-4 R/B 2.7 19:44:49 10° SSW 19:48:19 36° W 19:51:55 10° NNW
Cosmos 1733 3.7 19:49:19 30° E 19:49:19 30° E 19:52:21 10° NNE
Cosmos 1891 Rocket 4.4 19:43:17 10° S 19:49:17 71° E 19:55:26 10° NNE
Cosmos 1726 2.8 19:46:43 10° SSW 19:49:24 39° WNW 19:52:06 10° N
In-Cosmos 22 4.5 19:44:07 10° N 19:49:43 50° ENE 19:53:04 23° SE
Cosmos 1408 Rocket 4.4 19:50:28 28° ESE 19:51:15 30° E 19:55:04 10° NNE
Cosmos 1536 2.9 19:55:08 29° SSE 19:56:42 48° E 20:00:24 10° NNE
KORONAS-FOTON 3.7 19:53:40 10° NNW 19:57:23 80° W 19:59:46 21° S
Lacrosse 4 Rocket 2.0 19:53:20 10° NW 19:57:36 54° WSW 20:00:25 20° S
COSMOS 2428 2.6 19:52:44 10° SSW 19:58:24 73° ESE 20:04:08 10° NNE
Cosmos 1818 3.6 19:53:10 10° SW 19:58:38 88° NW 20:04:10 10° NE
Nadezhda 4 Rocket 4.0 19:55:21 10° N 20:01:32 62° ENE 20:05:35 23° SSE
Cosmos 1356 Rocket 3.3 19:57:29 10° N 20:01:42 80° E 20:03:50 28° SSE
Meteor 1-4 Rocket 2.1 19:59:02 10° NNW 20:01:42 62° W 20:02:21 43° SSW
Cosmos 1943 Rocket 2.5 19:58:45 10° NNW 20:04:08 50° NE 20:06:28 31° ESE
Cosmos 1674 3.7 20:02:25 10° NNW 20:05:33 38° W 20:08:24 12° SSW
Meteor 1-14 Rocket 4.1 20:00:45 10° S 20:06:18 90° E 20:11:52 10° NNE
Cosmos 1328 Rocket 4.3 20:02:36 10° NNW 20:06:46 50° W 20:10:54 10° S
Cosmos 1513 Rocket 4.4 20:02:08 10° S 20:08:12 87° E 20:14:19 10° N
SL-14 R/B 4.5 20:06:16 10° NNE 20:09:04 25° ENE 20:09:04 25° ENE
USA 59 Rocket 0.1 20:06:01 10° NW 20:09:49 74° SW 20:11:54 33° SSE
Terra 2.4 20:09:10 33° E 20:10:15 37° ENE 20:14:35 10° N
Cosmos 2026 Rocket 4.5 20:04:27 10° N 20:10:22 41° ENE 20:12:32 31° ESE
Cosmos 1464 Rocket 3.9 20:05:28 10° S 20:11:43 73° E 20:18:05 10° NNE
Meteor 1-11 Rocket 3.7 20:09:42 19° SSE 20:13:44 57° E 20:19:12 10° NNE
Cosmos 1805 Rocket 4.4 20:14:27 31° ENE 20:14:27 31° ENE 20:17:43 10° NNE
Ariane Rocket 3.8 20:14:45 30° E 20:15:45 33° ENE 20:20:15 10° N
Cosmos 1125 Rocket 3.5 20:11:50 10° NNW 20:17:00 62° ENE 20:18:45 40° SE
SPOT 3 Rocket 4.3 20:17:15 31° E 20:18:16 33° ENE 20:22:51 10° N
USA 290 2.2 20:16:17 10° NNW 20:19:32 75° WSW 20:19:43 72° SSW
Cosmos 2278 Rocket 2.1 20:14:41 10° NNW 20:20:24 89° WSW 20:22:57 34° SSE
ERS-1 Rocket 3.1 20:19:35 40° ESE 20:21:03 56° ENE 20:25:58 10° N
CZ-4B R/B 4.4 20:16:48 10° SSW 20:21:57 40° W 20:27:03 10° NNW
BREEZE-M DEB (TANK) 4.0 20:19:20 10° W 20:22:30 83° N 20:26:06 28° E
Meteor 2-9 Rocket 4.1 20:20:43 33° SSE 20:22:55 57° E 20:28:12 10° NNE
USA 306 4.0 20:22:00 10° SW 20:23:20 23° SW 20:23:20 23° SW
SPOT 5 2.7 20:24:19 36° S 20:26:18 85° WSW 20:30:53 10° NNW
NOSS 2-1 (C) 4.0 20:22:36 10° NW 20:26:20 53° SW 20:27:51 36° S
IRS-1A Rocket 4.3 20:25:49 36° SSE 20:28:16 74° ENE 20:34:01 10° NNW
Cosmos 2034 Rocket 3.9 20:26:34 24° S 20:30:30 69° E 20:36:40 10° NNE
Okean 3 Rocket 3.9 20:28:15 11° SSW 20:32:27 65° W 20:36:55 10° N
Okean O Rocket 2.9 20:31:49 16° SSW 20:34:58 38° W 20:39:07 10° NNW
Cosmos 2208 Rocket 4.4 20:35:49 42° E 20:35:49 42° E 20:40:18 10° NE
NOSS 0 Rocket 3.8 20:32:42 10° SSW 20:38:57 85° ESE 20:45:15 10° NNE
Resurs 01 Rocket 4.0 20:36:36 10° SW 20:39:56 21° W 20:43:17 10° NW
USA 215 3.3 20:35:42 10° ENE 20:42:01 49° SE 20:48:18 10° SSW
Meteor 1-21 4.3 20:41:13 10° N 20:46:52 56° ENE 20:47:41 52° ESE
Cosmos 2228 Rocket 4.1 20:42:56 10° N 20:46:31 35° NE 20:46:31 35° NE
MOS 1 Rocket 3.5 20:45:58 46° S 20:47:26 75° WSW 20:52:38 10° NNW
Cosmos 2237 Rocket 2.0 20:46:17 22° SSW 20:49:57 75° ESE 20:55:36 10° NNE
BlueWalker 3 3.0 20:46:55 10° WNW 20:49:46 35° WSW 20:49:46 35° WSW
Okean-O 3.6 20:49:39 31° SSW 20:51:11 43° W 20:55:25 10° NNW
Cosmos 1805 4.4 20:55:19 33° NNE 20:55:19 33° NNE 20:57:28 10° N
Aureole 3 Rocket 4.0 20:47:44 17° S 20:53:51 88° E 20:59:23 10° N
ACS3 Solar Sail 2.9 20:50:27 13° SSW 20:55:49 44° W 21:01:55 10° NNW
Sich 1 3.0 20:57:04 76° N 20:57:04 76° N 21:01:04 10° N
Cosmos 2219 Rocket 4.5 20:58:30 10° W 21:03:06 25° NW 21:07:43 10° N
Cosmos 2279 Rocket 4.3 21:06:50 47° E 21:06:50 47° E 21:12:30 10° NNE
BREEZE-M DEB (TANK) 3.6 20:52:39 10° W 21:09:26 87° N 21:10:46 55° E
Cosmos 1500 Rocket 4.0 21:11:22 55° W 21:11:38 57° WNW 21:15:58 10° N
Cosmos 1743 Rocket 4.0 21:16:41 57° NNW 21:16:41 57° NNW 21:20:21 10° N
USA 267 3.2 21:16:21 59° ESE 21:17:46 85° NNE 21:24:22 10° NW
Cosmos 1980 4.0 21:13:04 10° SW 21:18:43 67° WNW 21:24:25 10° NNE
Cosmos 2369 Rocket 2.8 21:16:07 10° NNW 21:21:34 43° NE 21:21:39 43° NE
Spot 2 Rocket 3.7 21:21:59 62° WSW 21:22:10 63° WSW 21:27:10 10° NNW
Cosmos 2298 Rocket 4.0 21:16:57 10° NNW 21:22:14 75° WSW 21:22:14 75° WSW
Cosmos 1315 Rocket 4.4 21:20:11 10° NNW 21:23:29 30° W 21:23:29 30° W
Cosmos 2150 Rocket 4.1 21:22:12 10° NNW 21:27:07 67° W 21:27:07 67° W
SL-16 R/B 3.3 21:49:08 34° NE 21:49:08 34° NE 21:52:19 10° NNE
NOSS 3-4 (A) 3.8 21:40:29 10° NW 21:47:10 68° NE 21:47:59 63° E
NOSS 3-4 (C) 3.8 21:40:35 10° NW 21:47:15 67° NE 21:48:05 62° E
Cosmos 1943 Rocket 3.5 21:42:54 10° NW 21:47:36 30° WSW 21:47:58 29° WSW
Terra 3.3 21:47:53 29° W 21:47:53 29° W 21:52:01 10° NNW
Ariane Rocket 4.0 21:54:54 39° W 21:54:54 39° W 21:59:21 10° NNW
Cosmos 2266 Rocket 4.1 21:49:54 10° N 21:55:29 65° NE 21:55:29 65° NE
USA 59 Rocket 2.9 21:57:45 10° W 21:58:17 11° WSW 21:58:17 11° WSW
Cosmos 2278 Rocket 4.3 22:00:23 10° WNW 22:03:38 16° W 22:04:48 15° WSW
Cosmos 1655 Rocket 4.3 22:10:34 10° N 22:15:58 59° NNE 22:15:58 59° NNE
USA 215 3.4 22:18:43 10° NE 22:25:15 70° NNW 22:31:44 10° WSW
Cosmos 2237 Rocket 4.2 22:30:03 10° W 22:34:37 25° NW 22:39:12 10° N
ATLAS 2AS CENTAUR R/B 4.5 22:32:09 10° NW 22:37:51 26° NNE 22:43:24 10° ENE
Cosmos 2369 Rocket 3.8 23:00:18 10° NW 23:03:25 28° WNW 23:03:25 28° WNW
SL-16 R/B 3.8 23:30:58 27° NW 23:31:16 27° NW 23:36:06 10° NNE
